Ottumwa, IA

12:28 PM CST on December 08, 2019 (GMT -0600)
Ottumwa Industrial

Weather History for KOTM - November, 2019

Change the Weather History Date:

Monday, November 18, 2019

  Actual Average Record
Temperature  
Mean Temperature 40 °F 38 °F  
Max Temperature 45 °F 47 °F 75 °F (1999)
Min Temperature 34 °F 29 °F 4 °F (2014)
Degree Days  
Heating Degree Days 26 27  
Month to date heating degree days 564 406  
Since 1 July heating degree days 1116 930  
Cooling Degree Days 0 0  
Month to date cooling degree days 0 0  
Year to date cooling degree days 1095 938  
Moisture  
Dew Point 34 °F    
Average Humidity 84    
Maximum Humidity 100    
Minimum Humidity 70    
Precipitation  
Precipitation 0.01 in 0.08 in 1.50 in (1900)
Month to date precipitation 0.13 1.53  
Year to date precipitation 38.93 34.85  
Sea Level Pressure  
Sea Level Pressure 29.77 in    
Wind  
Wind Speed 5 mph ()    
Max Wind Speed 13 mph    
Max Gust Speed 16 mph    
Visibility 8.5 miles    
Events Rain , Snow    
T = Trace of Precipitation, MM = Missing Value Source: Averaged Metar Reports

Daily Weather History Graph

Daily Weather History Graph

Search for Another Location

Airport or City:

Astronomy

Nov. 18, 2019 Rise Set
Actual Time 7:00 AM CST 4:48 PM CST
Civil Twilight 6:31 AM CST 5:18 PM CST
Nautical Twilight 5:57 AM CST 5:51 PM CST
Astronomical Twilight 5:24 AM CST 6:24 PM CST
Moon 10:34 PM CST (11/18) 12:32 PM CST (11/18)
Length of Visible Light 10h 47m
Length of Day
9h 47m
Waning Gibbous, 63% of the Moon is Illuminated
Nov 18
Waning Gibbous
Nov 19
Last Quarter
Nov 26
New
Dec 4
First Quarter
Dec 11
Full

Hourly Weather History & Observations

Time (CST) Temp. Windchill Dew Point Humidity Pressure Visibility Wind Dir Wind Speed Gust Speed Precip Events Conditions
12:53 AM 35.1 °F 29.3 °F 30.9 °F 85% 29.90 in 10.0 mi North 6.9 mph - N/A   Overcast
1:53 AM 35.1 °F 30.1 °F 30.9 °F 85% 29.89 in 10.0 mi North 5.8 mph - N/A   Overcast
2:53 AM 35.1 °F 32.2 °F 30.9 °F 85% 29.88 in 10.0 mi North 3.5 mph - N/A   Overcast
3:42 AM 35.1 °F 31.0 °F 30.0 °F 82% 29.85 in 10.0 mi North 4.6 mph - N/A   Overcast
3:53 AM 35.1 °F - 30.0 °F 82% 29.86 in 10.0 mi Calm Calm - N/A   Overcast
4:53 AM 35.1 °F - 30.0 °F 82% 29.87 in 10.0 mi Calm Calm - N/A   Overcast
5:53 AM 35.1 °F - 30.0 °F 82% 29.87 in 10.0 mi Calm Calm - N/A   Overcast
6:53 AM 34.0 °F 31.0 °F 30.0 °F 85% 29.86 in 10.0 mi ESE 3.5 mph - N/A   Overcast
7:53 AM 35.1 °F 30.1 °F 30.9 °F 85% 29.85 in 10.0 mi SSE 5.8 mph - N/A   Overcast
8:53 AM 36.0 °F 31.1 °F 32.0 °F 86% 29.84 in 10.0 mi SSE 5.8 mph - N/A   Scattered Clouds
9:53 AM 37.9 °F 32.1 °F 33.1 °F 83% 29.82 in 9.0 mi SE 8.1 mph - 0.00 in Snow Light Snow
10:53 AM 41.0 °F 36.4 °F 34.0 °F 76% 29.81 in 10.0 mi SSE 6.9 mph - 0.00 in   Clear
11:53 AM 42.1 °F 36.1 °F 34.0 °F 73% 29.78 in 10.0 mi SE 10.4 mph - N/A   Overcast
12:53 PM 44.1 °F 38.1 °F 35.1 °F 71% 29.76 in 10.0 mi SSE 11.5 mph - N/A   Overcast
1:53 PM 44.1 °F 39.0 °F 35.1 °F 71% 29.73 in 10.0 mi SE 9.2 mph - N/A   Overcast
2:53 PM 45.0 °F 39.7 °F 36.0 °F 71% 29.70 in 10.0 mi SE 10.4 mph - N/A   Overcast
3:53 PM 44.1 °F 39.5 °F 36.0 °F 73% 29.71 in 10.0 mi SE 8.1 mph - N/A   Overcast
4:53 PM 43.0 °F 38.2 °F 36.0 °F 76% 29.71 in 10.0 mi SE 8.1 mph - N/A   Overcast
5:53 PM 42.1 °F 36.6 °F 36.0 °F 79% 29.71 in 10.0 mi SE 9.2 mph - N/A   Overcast
6:53 PM 41.0 °F 36.4 °F 36.0 °F 82% 29.72 in 10.0 mi SSE 6.9 mph - N/A   Overcast
7:53 PM 41.0 °F 35.2 °F 36.0 °F 82% 29.70 in 10.0 mi SE 9.2 mph - N/A   Overcast
8:53 PM 39.9 °F - 37.9 °F 93% 29.71 in 9.0 mi Calm Calm - 0.00 in Rain Light Rain
9:53 PM 39.9 °F 37.8 °F 37.9 °F 93% 29.70 in 8.0 mi SSE 3.5 mph - 0.01 in   Overcast
10:30 PM 39.9 °F - 37.9 °F 93% 29.69 in 5.0 mi Calm Calm - N/A   Overcast
10:45 PM 39.9 °F - 37.9 °F 93% 29.69 in 4.0 mi Calm Calm - N/A   Overcast
10:53 PM 39.9 °F - 39.0 °F 97% 29.70 in 3.0 mi Calm Calm - N/A   Overcast
10:58 PM 39.9 °F - 37.9 °F 93% 29.69 in 2.5 mi Calm Calm - 0.00 in Rain Light Rain
11:27 PM 39.0 °F 36.8 °F 37.9 °F 96% 29.68 in 3.0 mi SE 3.5 mph - 0.00 in   Overcast
11:53 PM 39.0 °F 35.7 °F 37.9 °F 96% 29.68 in 3.0 mi ESE 4.6 mph - 0.00 in   Overcast